Вернуться в каталог

CZ-6A DEB

АктивенPO
NORAD 54266·DEBRIS·🇨🇳 China

Запущен Nov 11, 2022 с Taiyuan Satellite Launch Center

Loading…

Ближайшие Пролёты (ближайшие 24 часа)

TLE

СвежийSource: Space-Track

Эпоха: Sep 14, 2026, 21:21 UTC

1 54266U 22151H   26257.88994573 -.00000362  00000-0 -41298-3 0  9999
2 54266  98.9830 117.2068 0409191 199.4604 159.0502 13.33368320186867

Отслеживайте CZ-6A DEB в реальном времени с AllMySat

Download on the App Store